Tracking 27420 objects as of 28-May-2023
HD Live streaming from Space Station
objects crossing your sky now

CZ-2 DEB

Track CZ-2 DEB now!
10-day predictions


NORAD ID: 38661
Int'l Code: 2012-029C
Perigee: 1,100.4 km
Apogee: 1,287.7 km
Inclination: 100.2 °
Period: 109.1 minutes
Semi major axis: 7565 km
RCS: 0.0137 m2 (small)
Launch date: May 29, 2012
Source: People's Republic of China (PRC)
Launch site: Taiyaun Space Center, China (TSC)

Note: This is SATELLITE DEBRIS
Your satellite tracking list
Your tracking list is empty




NASA's NSSDC Master Catalog

Two Line Element Set (TLE):
1 38661U 12029C   23147.49361625  .00000074  00000-0  28239-3 0  9999
2 38661 100.1864 224.9272 0123769  10.6713 349.6986 13.19421748526266
Source of the keplerian elements: AFSPC